Location: Frankeen�s Cross Roads
(52.1892°N, 7.2586°W)
Time: 15:12:58
(UTC+00:00)

Daily predictions for brighter satellites

Satellite Brightness Start Highest point End
(mag) Time Altitude Azimuth Time Altitude Azimuth Time Altitude Azimuth
Cosmos 1745 Rocket 4.1 21:27:13 10° S 21:33:26 88° W 21:39:46 10° N
SPOT 1/Viking Rocket 3.6 21:33:16 10° SSE 21:38:25 89° ENE 21:43:38 10° NNW
Cosmos 1953 Rocket 3.9 21:34:55 10° SSE 21:39:02 46° E 21:43:12 10° NNE
NOSS 7 (D) 3.7 21:36:58 10° SW 21:39:43 62° SE 21:42:22 10° NE
CZ-4C R/B 4.4 21:35:12 10° WNW 21:40:37 31° N 21:46:57 10° ENE
USA 267 3.4 21:36:20 10° ESE 21:42:54 80° NNE 21:49:29 10° WNW
SAR-Lupe-2 3.9 21:39:31 10° NNE 21:43:00 48° E 21:46:30 10° S
Cosmos 2084 3.6 21:38:45 10° NW 21:43:15 79° NE 21:47:41 10° SE
Cosmos 1328 3.8 21:39:48 10° S 21:43:45 74° E 21:47:44 10° NNE
Cosmos 1842 Rocket 4.5 21:40:45 10° N 21:44:47 35° ENE 21:48:46 10° SE
Cosmos 2322 Rocket 2.9 21:39:56 10° SW 21:45:29 62° NW 21:51:06 10° NNE
Cosmos 1455 3.4 21:42:14 10° NNW 21:45:52 41° W 21:49:30 10° SSW
Cosmos 2237 4.3 21:42:35 10° SSW 21:48:20 89° ESE 21:54:08 10° NNE
Cosmos 1825 Rocket 3.7 21:50:15 10° S 21:54:42 87° WNW 21:59:12 10° N
ATLAS CENTAUR R/B 1.0 21:51:06 10° NW 21:54:51 90° SSW 21:58:26 10° SE
Cosmos 1703 3.5 21:53:38 10° SSW 21:57:30 71° WNW 22:01:24 10° N
Alouette 2 Rocket 4.0 21:54:16 10° NNW 21:57:55 57° WSW 22:02:37 10° S
Cosmos 1844 4.4 21:59:50 10° NW 22:05:23 49° WSW 22:10:51 10° S
COSMOS 2428 3.1 22:00:10 10° S 22:05:30 44° ESE 22:10:53 10° NE
Cosmos 1869 3.9 22:02:02 10° N 22:05:51 43° ENE 22:09:22 12° SE
Cosmos 2322 3.7 22:03:35 10° SSW 22:09:17 73° ESE 22:15:01 10° NNE
NOSS 3-4 (A) 4.1 22:04:46 10° NW 22:11:30 65° NE 22:18:58 10° ESE
NOSS 3-4 (C) 4.1 22:04:53 10° NW 22:11:36 65° NE 22:19:03 10° ESE
Meteor 1-27 4.3 22:06:29 10° NNW 22:12:14 90° WSW 22:18:02 10° S
CARTOSAT-1 3.9 22:10:28 10° S 22:14:44 62° WSW 22:19:02 10° NNW
Terra 1.8 22:10:34 10° SSE 22:15:16 88° E 22:20:05 10° NNW
Cosmos 1709 Rocket 4.3 22:12:14 10° SSW 22:18:32 75° WNW 22:24:57 10° N
BREEZE-M DEB 4.1 22:15:03 10° W 22:18:33 54° S 22:30:26 10° ESE
Cosmos 2237 Rocket 3.4 22:14:58 11° SSE 22:19:10 25° ESE 22:23:43 10° NE
Cosmos 2333 4.2 22:15:26 10° SSW 22:21:05 83° ESE 22:26:51 10° NNE
Cosmos 2219 Rocket 2.2 22:15:44 10° SSW 22:21:13 62° ESE 22:26:46 10° NE
Cosmos 1538 Rocket 4.1 22:17:19 10° S 22:22:37 64° ESE 22:27:54 10° NNE
Cosmos 2360 Rocket 2.9 22:17:45 10° SW 22:23:20 59° NW 22:28:58 10° NNE
NOSS 3-3 (A) 4.1 22:17:48 10° SSW 22:23:31 54° SE 22:30:00 10° NE
NOSS 3-3 (C) 4.1 22:17:54 10° SSW 22:23:38 53° SE 22:30:07 10° NE
Cosmos 1315 Rocket 3.1 22:22:00 10° NNW 22:26:05 67° W 22:29:55 11° S
Resurs 01 Rocket 4.3 22:28:53 10° WSW 22:30:51 13° W 22:32:49 10° WNW
Meteor 2-2 Rocket 4.3 22:24:59 10° N 22:30:52 78° ENE 22:35:55 14° SSE
Cosmos 2333 Rocket 2.2 22:25:38 10° SSW 22:31:19 77° ESE 22:37:04 10° NNE
Cosmos 2184 Rocket 4.1 22:27:10 10° S 22:33:13 62° E 22:39:28 10° NNE
Cosmos 2221 2.5 22:31:17 10° N 22:35:43 87° E 22:39:20 15° S
Cosmos 1818 4.2 22:32:16 10° WSW 22:37:40 61° NW 22:43:06 10° NE
BREEZE-M DEB (TANK) 2.0 22:33:24 10° W 22:38:57 58° S 22:41:22 11° ESE
Cosmos 773 Rocket 4.4 22:34:09 10° SSW 22:39:26 70° WNW 22:44:45 10° NNE
ATLAS 2AS CENTAUR R/B 3.0 22:31:46 10° NW 22:39:33 79° NE 22:46:25 11° SE
ERS-1 Rocket 4.1 22:37:28 10° SSW 22:42:11 39° W 22:46:55 10° NNW
GEOS 3 Rocket 3.9 22:37:04 10° NE 22:42:29 76° NW 22:47:52 10° SW
Cosmos 1892 3.1 22:41:59 17° SSE 22:44:37 46° E 22:48:17 10° NNE
Aureole 2 Rocket 4.0 22:44:42 10° N 22:46:54 20° NE 22:48:59 11° ESE
Cosmos 2278 Rocket 2.3 22:44:47 10° NNW 22:50:29 74° WSW 22:54:59 16° SSE
USA 215 3.2 22:45:10 10° ENE 22:51:44 67° SE 22:58:14 10° SW
ATLAS 5 CENTAUR R/B 2.6 22:51:02 10° WSW 22:55:15 52° NW 23:00:07 10° NE
Cosmos 158 Rocket 4.4 22:52:56 17° SSE 22:56:16 39° ESE 23:00:51 10° NE
Lacrosse 5 rocket 2.6 22:53:39 10° WNW 22:57:38 42° N 23:01:24 10° ENE
Cosmos 1943 Rocket 3.7 22:53:07 10° NNW 22:58:08 31° NE 23:03:07 10° ESE
SPOT 5 4.3 22:53:43 10° SSW 22:58:12 32° W 23:02:31 10° NNW
Spot 4 4.0 22:59:07 18° SSE 23:02:41 68° ENE 23:07:27 10° N
SL-16 R/B 3.6 23:00:47 15° SE 23:03:35 22° E 23:07:47 10° NE
Cosmos 2056 Rocket 3.8 22:58:20 10° NNW 23:03:44 67° ENE 23:07:58 17° SE
Cosmos 2058 2.9 23:01:11 17° S 23:04:20 76° E 23:08:29 10° NNE
Cosmos 1408 2.9 23:03:24 22° SSE 23:05:26 47° E 23:08:54 10° NNE
Nadezhda 3 Rocket 4.1 23:02:26 10° N 23:08:52 89° W 23:13:54 17° S
Cosmos 2154 Rocket 4.0 23:07:49 15° S 23:13:04 78° E 23:19:19 10° NNE
Cosmos 1076 Rocket 3.4 23:12:53 17° S 23:16:08 87° E 23:20:27 10° NNE
Cosmos 2341 Rocket 4.4 23:11:47 18° SSE 23:16:15 50° E 23:22:13 10° NNE
In-Cosmos 22 Rocket 4.1 23:11:40 13° SSW 23:16:25 85° WNW 23:21:48 10° NNE
Meteor 2-17 Rocket 4.5 23:11:26 12° SSW 23:17:08 81° W 23:23:14 10° N
Cosmos 1680 Rocket 3.6 23:15:58 15° S 23:20:22 68° ESE 23:25:41 10° NNE
Cosmos 2074 Rocket 4.3 23:14:14 10° SSW 23:20:24 65° WNW 23:26:37 10° N
USA 267 3.6 23:21:24 18° SSE 23:26:14 49° SW 23:32:34 10° WNW
Cosmos 2151 3.3 23:23:53 22° SSE 23:26:23 52° E 23:30:33 10° NNE
Helios 1A 4.3 23:24:53 14° ESE 23:27:54 31° ENE 23:31:36 10° N
CZ-4C R/B 3.7 23:24:16 10° NW 23:30:40 48° NNE 23:38:12 10° ESE
Cosmos 1452 Rocket 4.3 23:25:36 10° NNW 23:30:42 46° ENE 23:35:06 13° SE
BREEZE-M DEB (TANK) 3.9 23:27:55 10° W 23:31:43 18° SW 23:32:45 16° SSW
COSMOS 2455 3.5 23:26:13 10° NW 23:32:11 55° NE 23:38:06 10° ESE
ATLAS CENTAUR R/B 3.4 23:31:37 10° W 23:33:05 12° WSW 23:34:33 10° SW
Cosmos 1825 2.2 23:32:56 25° S 23:35:03 71° E 23:38:50 10° NNE
SL-8 Rocket 4.4 23:30:59 19° SSE 23:35:12 51° E 23:41:08 10° NNE
Cosmos 1933 3.9 23:31:58 10° N 23:35:53 47° ENE 23:38:13 22° SE
Cosmos 1340 4.1 23:34:23 19° SE 23:35:56 24° E 23:39:03 10° NE
Cosmos 1151 Rocket 3.4 23:33:09 10° N 23:37:26 55° ENE 23:40:03 22° SE
Cosmos 923 Rocket 4.2 23:32:43 10° SSW 23:37:59 74° WNW 23:43:18 10° NNE
ALOS 2 2.7 23:35:27 22° SSE 23:38:12 75° ENE 23:42:36 10° NNW
EO 1 Delta rocket 4.2 23:33:43 10° N 23:38:42 88° ESE 23:43:18 18° S
Cosmos 2369 Rocket 3.3 23:37:38 10° NNW 23:42:55 40° NE 23:48:11 10° ESE
APEX 3.5 23:40:17 10° NNW 23:42:55 38° NE 23:44:22 21° ESE
Cosmos 1980 3.7 23:38:46 10° SSW 23:44:25 85° WNW 23:50:07 10° NNE
Cosmos 44 3.8 23:43:38 24° SSE 23:45:19 33° ESE 23:49:19 10° NE
GP-B 3.3 23:41:51 10° N 23:46:17 63° E 23:48:50 24° SSE
Cosmos 371 Rocket 3.4 23:42:14 10° NNW 23:47:07 72° ENE 23:50:25 20° SE
SL-4 R/B 1.4 23:48:59 32° E 23:49:12 34° ENE 23:51:08 10° N
COSMOS 2428 3.9 23:44:27 10° WSW 23:49:51 43° NW 23:55:16 10° NNE
Terra 4.1 23:51:02 10° WSW 23:53:42 15° W 23:56:22 10° NW
Cosmos 1624 Rocket 4.4 23:49:00 10° NNW 23:54:06 53° WSW 23:57:16 22° S
CREW DRAGON DEMO-1 DEB 3.7 23:54:48 30° SE 23:54:48 30° SE 23:57:10 10° E
